Year,Month,Day,Hour,Minute,Value (Times are PST for barometer in hPa)
2014,02,18,00,00,1009.94
2014,02,18,00,01,1009.92
2014,02,18,00,02,1009.95
2014,02,18,00,03,1010.01
2014,02,18,00,04,1010.04
2014,02,18,00,05,1010.06
2014,02,18,00,06,1010.08
2014,02,18,00,07,1010.11
2014,02,18,00,08,1010.16
2014,02,18,00,09,1010.19
2014,02,18,00,10,1010.22
2014,02,18,00,11,1010.25
2014,02,18,00,12,1010.21
2014,02,18,00,13,1010.18
2014,02,18,00,14,1010.15
2014,02,18,00,15,1010.11
2014,02,18,00,16,1010.14
2014,02,18,00,17,1010.19
2014,02,18,00,18,1010.21
2014,02,18,00,19,1010.24
2014,02,18,00,20,1010.28
2014,02,18,00,21,1010.27
2014,02,18,00,22,1010.21
2014,02,18,00,23,1010.17
2014,02,18,00,24,1010.15
2014,02,18,00,25,1010.13
2014,02,18,00,26,1010.13
2014,02,18,00,27,1010.13
2014,02,18,00,28,1010.13
2014,02,18,00,29,1010.16
2014,02,18,00,30,1010.21
2014,02,18,00,31,1010.20
2014,02,18,00,32,1010.17
2014,02,18,00,33,1010.17
2014,02,18,00,34,1010.13
2014,02,18,00,35,1010.09
2014,02,18,00,36,1010.09
2014,02,18,00,37,1010.08
2014,02,18,00,38,1010.08
2014,02,18,00,39,1010.09
2014,02,18,00,40,1010.14
2014,02,18,00,41,1010.18
2014,02,18,00,42,1010.13
2014,02,18,00,43,1010.08
2014,02,18,00,44,1010.06
2014,02,18,00,45,1010.04
2014,02,18,00,46,1010.05
2014,02,18,00,47,1010.12
2014,02,18,00,48,1010.19
2014,02,18,00,49,1010.21
2014,02,18,00,50,1010.19
2014,02,18,00,51,1010.19
2014,02,18,00,52,1010.21
2014,02,18,00,53,1010.27
2014,02,18,00,54,1010.30
2014,02,18,00,55,1010.33
2014,02,18,00,56,1010.36
2014,02,18,00,57,1010.38
2014,02,18,00,58,1010.43
2014,02,18,00,59,1010.48
2014,02,18,01,00,1010.50
2014,02,18,01,01,1010.50
2014,02,18,01,02,1010.51
2014,02,18,01,03,1010.53
2014,02,18,01,04,1010.53
2014,02,18,01,05,1010.52
2014,02,18,01,06,1010.52
2014,02,18,01,07,1010.49
2014,02,18,01,08,1010.44
2014,02,18,01,09,1010.43
2014,02,18,01,10,1010.42
2014,02,18,01,11,1010.36
2014,02,18,01,12,1010.34
2014,02,18,01,13,1010.38
2014,02,18,01,14,1010.38
2014,02,18,01,15,1010.34
2014,02,18,01,16,1010.34
2014,02,18,01,17,1010.38
2014,02,18,01,18,1010.42
2014,02,18,01,19,1010.45
2014,02,18,01,20,1010.48
2014,02,18,01,21,1010.52
2014,02,18,01,22,1010.55
2014,02,18,01,23,1010.57
2014,02,18,01,24,1010.57
2014,02,18,01,25,1010.57
2014,02,18,01,26,1010.59
2014,02,18,01,27,1010.61
2014,02,18,01,28,1010.65
2014,02,18,01,29,1010.67
2014,02,18,01,30,1010.67
2014,02,18,01,31,1010.64
2014,02,18,01,32,1010.61
2014,02,18,01,33,1010.65
2014,02,18,01,34,1010.65
2014,02,18,01,35,1010.63
2014,02,18,01,36,1010.65
2014,02,18,01,37,1010.68
2014,02,18,01,38,1010.72
2014,02,18,01,39,1010.72
2014,02,18,01,40,1010.70
2014,02,18,01,41,1010.70
2014,02,18,01,42,1010.69
2014,02,18,01,43,1010.65
2014,02,18,01,44,1010.65
2014,02,18,01,45,1010.63
2014,02,18,01,46,1010.60
2014,02,18,01,47,1010.60
2014,02,18,01,48,1010.59
2014,02,18,01,49,1010.55
2014,02,18,01,50,1010.52
2014,02,18,01,51,1010.45
2014,02,18,01,52,1010.38
2014,02,18,01,53,1010.36
2014,02,18,01,54,1010.32
2014,02,18,01,55,1010.24
2014,02,18,01,56,1010.20
2014,02,18,01,57,1010.17
2014,02,18,01,58,1010.21
2014,02,18,01,59,1010.24
2014,02,18,02,00,1010.31
2014,02,18,02,01,1010.35
2014,02,18,02,02,1010.34
2014,02,18,02,03,1010.38
2014,02,18,02,04,1010.38
2014,02,18,02,05,1010.38
2014,02,18,02,06,1010.38
2014,02,18,02,07,1010.38
2014,02,18,02,08,1010.41
2014,02,18,02,09,1010.43
2014,02,18,02,10,1010.44
2014,02,18,02,11,1010.45
2014,02,18,02,12,1010.43
2014,02,18,02,13,1010.43
2014,02,18,02,14,1010.43
2014,02,18,02,15,1010.40
2014,02,18,02,16,1010.34
2014,02,18,02,17,1010.33
2014,02,18,02,18,1010.33
2014,02,18,02,19,1010.33
2014,02,18,02,20,1010.33
2014,02,18,02,21,1010.29
2014,02,18,02,22,1010.28
2014,02,18,02,23,1010.25
2014,02,18,02,24,1010.16
2014,02,18,02,25,1010.13
2014,02,18,02,26,1010.10
2014,02,18,02,27,1010.08
2014,02,18,02,28,1010.09
2014,02,18,02,29,1010.08
2014,02,18,02,30,1010.06
2014,02,18,02,31,1010.06
2014,02,18,02,32,1010.03
2014,02,18,02,33,1009.97
2014,02,18,02,34,1009.96
2014,02,18,02,35,1009.93
2014,02,18,02,36,1009.91
2014,02,18,02,37,1009.97
2014,02,18,02,38,1009.99
2014,02,18,02,39,1009.94
2014,02,18,02,40,1009.96
2014,02,18,02,41,1009.99
2014,02,18,02,42,1009.99
2014,02,18,02,43,1009.99
2014,02,18,02,44,1010.01
2014,02,18,02,45,1010.05
2014,02,18,02,46,1010.09
2014,02,18,02,47,1010.09
2014,02,18,02,48,1010.11
2014,02,18,02,49,1010.11
2014,02,18,02,50,1010.09
2014,02,18,02,51,1010.09
2014,02,18,02,52,1010.06
2014,02,18,02,53,1009.99
2014,02,18,02,54,1009.97
2014,02,18,02,55,1009.99
2014,02,18,02,56,1009.99
2014,02,18,02,57,1009.98
2014,02,18,02,58,1009.96
2014,02,18,02,59,1009.97
2014,02,18,03,00,1009.99
2014,02,18,03,01,1010.03
2014,02,18,03,02,1010.09
2014,02,18,03,03,1010.13
2014,02,18,03,06,1009.99
2014,02,18,03,07,1009.88
2014,02,18,03,08,1009.82
2014,02,18,03,09,1009.82
2014,02,18,03,10,1009.77
2014,02,18,03,11,1009.72
2014,02,18,03,12,1009.70
2014,02,18,03,13,1009.71
2014,02,18,03,14,1009.68
2014,02,18,03,15,1009.67
2014,02,18,03,16,1009.65
2014,02,18,03,17,1009.66
2014,02,18,03,18,1009.69
2014,02,18,03,19,1009.69
2014,02,18,03,20,1009.65
2014,02,18,03,21,1009.62
2014,02,18,03,22,1009.60
2014,02,18,03,23,1009.62
2014,02,18,03,24,1009.63
2014,02,18,03,25,1009.66
2014,02,18,03,26,1009.69
2014,02,18,03,27,1009.67
2014,02,18,03,28,1009.61
2014,02,18,03,29,1009.56
2014,02,18,03,30,1009.55
2014,02,18,03,31,1009.53
2014,02,18,03,32,1009.55
2014,02,18,03,33,1009.58
2014,02,18,03,34,1009.58
2014,02,18,03,35,1009.58
2014,02,18,03,36,1009.56
2014,02,18,03,37,1009.53
2014,02,18,03,38,1009.52
2014,02,18,03,39,1009.48
2014,02,18,03,40,1009.43
2014,02,18,03,41,1009.42
2014,02,18,03,42,1009.40
2014,02,18,03,43,1009.34
2014,02,18,03,44,1009.31
2014,02,18,03,45,1009.33
2014,02,18,03,46,1009.35
2014,02,18,03,47,1009.37
2014,02,18,03,48,1009.38
2014,02,18,03,49,1009.38
2014,02,18,03,50,1009.36
2014,02,18,03,51,1009.37
2014,02,18,03,52,1009.38
2014,02,18,03,53,1009.40
2014,02,18,03,54,1009.42
2014,02,18,03,55,1009.44
2014,02,18,03,56,1009.43
2014,02,18,03,57,1009.44
2014,02,18,03,58,1009.43
2014,02,18,03,59,1009.42
2014,02,18,04,00,1009.42
2014,02,18,04,01,1009.40
2014,02,18,04,02,1009.36
2014,02,18,04,03,1009.31
2014,02,18,04,04,1009.26
2014,02,18,04,05,1009.21
2014,02,18,04,06,1009.18
2014,02,18,04,07,1009.10
2014,02,18,04,08,1009.02
2014,02,18,04,09,1008.99
2014,02,18,04,10,1008.95
2014,02,18,04,11,1008.90
2014,02,18,04,12,1008.85
2014,02,18,04,13,1008.82
2014,02,18,04,14,1008.79
2014,02,18,04,15,1008.73
2014,02,18,04,16,1008.72
2014,02,18,04,17,1008.74
2014,02,18,04,18,1008.74
2014,02,18,04,19,1008.70
2014,02,18,04,20,1008.69
2014,02,18,04,21,1008.76
2014,02,18,04,22,1008.79
2014,02,18,04,23,1008.73
2014,02,18,04,24,1008.72
2014,02,18,04,25,1008.74
2014,02,18,04,26,1008.74
2014,02,18,04,27,1008.72
2014,02,18,04,28,1008.72
2014,02,18,04,29,1008.72
2014,02,18,04,30,1008.70
2014,02,18,04,31,1008.68
2014,02,18,04,32,1008.63
2014,02,18,04,33,1008.56
2014,02,18,04,34,1008.51
2014,02,18,04,35,1008.54
2014,02,18,04,36,1008.57
2014,02,18,04,37,1008.53
2014,02,18,04,38,1008.48
2014,02,18,04,39,1008.43
2014,02,18,04,40,1008.40
2014,02,18,04,41,1008.38
2014,02,18,04,42,1008.37
2014,02,18,04,43,1008.35
2014,02,18,04,44,1008.31
2014,02,18,04,45,1008.30
2014,02,18,04,46,1008.28
2014,02,18,04,47,1008.23
2014,02,18,04,48,1008.18
2014,02,18,04,49,1008.16
2014,02,18,04,50,1008.16
2014,02,18,04,51,1008.18
2014,02,18,04,52,1008.20
2014,02,18,04,53,1008.18
2014,02,18,04,54,1008.16
2014,02,18,04,55,1008.16
2014,02,18,04,56,1008.16
2014,02,18,04,57,1008.14
2014,02,18,04,58,1008.11
2014,02,18,04,59,1008.06
2014,02,18,05,00,1008.06
2014,02,18,05,01,1008.11
2014,02,18,05,02,1008.09
2014,02,18,05,03,1008.04
2014,02,18,05,04,1008.01
2014,02,18,05,05,1008.03
2014,02,18,05,06,1008.08
2014,02,18,05,07,1008.07
2014,02,18,05,08,1008.06
2014,02,18,05,09,1008.06
2014,02,18,05,10,1008.06
2014,02,18,05,11,1008.02
2014,02,18,05,12,1007.96
2014,02,18,05,13,1007.89
2014,02,18,05,14,1007.88
2014,02,18,05,15,1007.85
2014,02,18,05,16,1007.82
2014,02,18,05,17,1007.80
2014,02,18,05,18,1007.79
2014,02,18,05,19,1007.79
2014,02,18,05,20,1007.79
2014,02,18,05,21,1007.81
2014,02,18,05,22,1007.79
2014,02,18,05,23,1007.78
2014,02,18,05,24,1007.81
2014,02,18,05,25,1007.82
2014,02,18,05,26,1007.86
2014,02,18,05,27,1007.84
2014,02,18,05,28,1007.77
2014,02,18,05,29,1007.76
2014,02,18,05,30,1007.70
2014,02,18,05,31,1007.63
2014,02,18,05,32,1007.66
2014,02,18,05,33,1007.67
2014,02,18,05,34,1007.65
2014,02,18,05,35,1007.69
2014,02,18,05,36,1007.72
2014,02,18,05,37,1007.66
2014,02,18,05,38,1007.62
2014,02,18,05,39,1007.62
2014,02,18,05,40,1007.58
2014,02,18,05,41,1007.57
2014,02,18,05,42,1007.55
2014,02,18,05,43,1007.48
2014,02,18,05,44,1007.45
2014,02,18,05,45,1007.40
2014,02,18,05,46,1007.33
2014,02,18,05,47,1007.38
2014,02,18,05,48,1007.42
2014,02,18,05,49,1007.36
2014,02,18,05,50,1007.32
2014,02,18,05,51,1007.30
2014,02,18,05,52,1007.32
2014,02,18,05,53,1007.37
2014,02,18,05,54,1007.28
2014,02,18,05,55,1007.18
2014,02,18,05,56,1007.11
2014,02,18,05,57,1007.00
2014,02,18,05,58,1006.98
2014,02,18,05,59,1006.97
2014,02,18,06,00,1006.92
2014,02,18,06,01,1006.81
2014,02,18,06,02,1006.72
2014,02,18,06,03,1006.72
2014,02,18,06,04,1006.70
2014,02,18,06,05,1006.67
2014,02,18,06,06,1006.63
2014,02,18,06,07,1006.57
2014,02,18,06,08,1006.50
2014,02,18,06,09,1006.53
2014,02,18,06,10,1006.59
2014,02,18,06,11,1006.58
2014,02,18,06,12,1006.55
2014,02,18,06,13,1006.54
2014,02,18,06,14,1006.52
2014,02,18,06,15,1006.52
2014,02,18,06,16,1006.50
2014,02,18,06,17,1006.43
2014,02,18,06,18,1006.36
2014,02,18,06,19,1006.33
2014,02,18,06,20,1006.30
2014,02,18,06,21,1006.33
2014,02,18,06,22,1006.42
2014,02,18,06,23,1006.45
2014,02,18,06,24,1006.44
2014,02,18,06,25,1006.42
2014,02,18,06,26,1006.44
2014,02,18,06,27,1006.49
2014,02,18,06,28,1006.47
2014,02,18,06,29,1006.40
2014,02,18,06,30,1006.35
2014,02,18,06,31,1006.35
2014,02,18,06,32,1006.27
2014,02,18,06,33,1006.20
2014,02,18,06,34,1006.18
2014,02,18,06,35,1006.18
2014,02,18,06,36,1006.12
2014,02,18,06,37,1006.06
2014,02,18,06,38,1006.06
2014,02,18,06,39,1006.04
2014,02,18,06,40,1006.03
2014,02,18,06,41,1005.98
2014,02,18,06,42,1005.93
2014,02,18,06,43,1005.93
2014,02,18,06,44,1005.95
2014,02,18,06,45,1005.94
2014,02,18,06,46,1005.91
2014,02,18,06,47,1005.93
2014,02,18,06,48,1005.92
2014,02,18,06,49,1005.87
2014,02,18,06,50,1005.86
2014,02,18,06,51,1005.86
2014,02,18,06,52,1005.88
2014,02,18,06,53,1005.86
2014,02,18,06,54,1005.79
2014,02,18,06,55,1005.80
2014,02,18,06,56,1005.85
2014,02,18,06,57,1005.82
2014,02,18,06,58,1005.79
2014,02,18,06,59,1005.75
2014,02,18,07,00,1005.76
2014,02,18,07,01,1005.73
2014,02,18,07,02,1005.65
2014,02,18,07,03,1005.57
2014,02,18,07,04,1005.52
2014,02,18,07,05,1005.54
2014,02,18,07,06,1005.48
2014,02,18,07,07,1005.46
2014,02,18,07,08,1005.51
2014,02,18,07,09,1005.45
2014,02,18,07,10,1005.41
2014,02,18,07,11,1005.41
2014,02,18,07,12,1005.39
2014,02,18,07,13,1005.33
2014,02,18,07,14,1005.28
2014,02,18,07,15,1005.18
2014,02,18,07,16,1005.08
2014,02,18,07,17,1005.08
2014,02,18,07,18,1005.01
2014,02,18,07,19,1004.91
2014,02,18,07,20,1004.93
2014,02,18,07,21,1004.96
2014,02,18,07,22,1004.93
2014,02,18,07,23,1004.89
2014,02,18,07,24,1004.84
2014,02,18,07,25,1004.77
2014,02,18,07,26,1004.70
2014,02,18,07,27,1004.64
2014,02,18,07,28,1004.61
2014,02,18,07,29,1004.57
2014,02,18,07,30,1004.56
2014,02,18,07,31,1004.55
2014,02,18,07,32,1004.58
2014,02,18,07,33,1004.53
2014,02,18,07,34,1004.47
2014,02,18,07,35,1004.48
2014,02,18,07,36,1004.45
2014,02,18,07,37,1004.44
2014,02,18,07,38,1004.46
2014,02,18,07,39,1004.42
2014,02,18,07,40,1004.39
2014,02,18,07,41,1004.37
2014,02,18,07,42,1004.34
2014,02,18,07,43,1004.36
2014,02,18,07,44,1004.37
2014,02,18,07,45,1004.33
2014,02,18,07,46,1004.28
2014,02,18,07,47,1004.25
2014,02,18,07,48,1004.25
2014,02,18,07,49,1004.27
2014,02,18,07,50,1004.23
2014,02,18,07,51,1004.14
2014,02,18,07,52,1004.10
2014,02,18,07,53,1004.10
2014,02,18,07,54,1004.10
2014,02,18,07,55,1004.08
2014,02,18,07,56,1004.04
2014,02,18,07,57,1004.01
2014,02,18,07,58,1003.98
2014,02,18,07,59,1003.96
2014,02,18,08,00,1003.96
2014,02,18,08,01,1003.98
2014,02,18,08,02,1003.96
2014,02,18,08,03,1003.93
2014,02,18,08,04,1003.93
2014,02,18,08,05,1003.91
2014,02,18,08,06,1003.91
2014,02,18,08,07,1003.88
2014,02,18,08,08,1003.83
2014,02,18,08,09,1003.83
2014,02,18,08,10,1003.85
2014,02,18,08,11,1003.84
2014,02,18,08,12,1003.79
2014,02,18,08,13,1003.74
2014,02,18,08,14,1003.71
2014,02,18,08,15,1003.67
2014,02,18,08,16,1003.62
2014,02,18,08,17,1003.57
2014,02,18,08,18,1003.54
2014,02,18,08,19,1003.54
2014,02,18,08,20,1003.56
2014,02,18,08,21,1003.58
2014,02,18,08,22,1003.57
2014,02,18,08,23,1003.54
2014,02,18,08,24,1003.47
2014,02,18,08,25,1003.42
2014,02,18,08,26,1003.38
2014,02,18,08,27,1003.39
2014,02,18,08,28,1003.40
2014,02,18,08,29,1003.41
2014,02,18,08,30,1003.42
2014,02,18,08,31,1003.42
2014,02,18,08,32,1003.44
2014,02,18,08,33,1003.49
2014,02,18,08,34,1003.49
2014,02,18,08,35,1003.42
2014,02,18,08,36,1003.43
2014,02,18,08,37,1003.35
2014,02,18,08,38,1003.30
2014,02,18,08,39,1003.33
2014,02,18,08,40,1003.34
2014,02,18,08,41,1003.35
2014,02,18,08,42,1003.33
2014,02,18,08,43,1003.32
2014,02,18,08,44,1003.36
2014,02,18,08,45,1003.31
2014,02,18,08,46,1003.23
2014,02,18,08,47,1003.18
2014,02,18,08,48,1003.11
2014,02,18,08,49,1003.06
2014,02,18,08,50,1003.03
2014,02,18,08,51,1002.96
2014,02,18,08,52,1002.86
2014,02,18,08,53,1002.77
2014,02,18,08,54,1002.76
2014,02,18,08,55,1002.74
2014,02,18,08,56,1002.66
2014,02,18,08,57,1002.57
2014,02,18,08,58,1002.54
2014,02,18,08,59,1002.50
2014,02,18,09,00,1002.47
2014,02,18,09,01,1002.47
2014,02,18,09,02,1002.45
2014,02,18,09,03,1002.44
2014,02,18,09,04,1002.40
2014,02,18,09,05,1002.39
2014,02,18,09,06,1002.37
2014,02,18,09,07,1002.32
2014,02,18,09,08,1002.30
2014,02,18,09,09,1002.27
2014,02,18,09,10,1002.22
2014,02,18,09,11,1002.20
2014,02,18,09,12,1002.22
2014,02,18,09,13,1002.22
2014,02,18,09,14,1002.15
2014,02,18,09,15,1002.06
2014,02,18,09,16,1002.01
2014,02,18,09,17,1001.98
2014,02,18,09,18,1001.95
2014,02,18,09,19,1001.91
2014,02,18,09,20,1001.94
2014,02,18,09,21,1001.93
2014,02,18,09,22,1001.90
2014,02,18,09,23,1001.88
2014,02,18,09,24,1001.88
2014,02,18,09,25,1001.86
2014,02,18,09,26,1001.81
2014,02,18,09,27,1001.76
2014,02,18,09,28,1001.70
2014,02,18,09,29,1001.60
2014,02,18,09,30,1001.56
2014,02,18,09,31,1001.58
2014,02,18,09,32,1001.61
2014,02,18,09,33,1001.63
2014,02,18,09,34,1001.57
2014,02,18,09,35,1001.49
2014,02,18,09,36,1001.38
2014,02,18,09,37,1001.27
2014,02,18,09,38,1001.20
2014,02,18,09,39,1001.19
2014,02,18,09,40,1001.14
2014,02,18,09,41,1001.05
2014,02,18,09,42,1001.02
2014,02,18,09,43,1001.02
2014,02,18,09,44,1000.97
2014,02,18,09,45,1000.83
2014,02,18,09,46,1000.75
2014,02,18,09,47,1000.70
2014,02,18,09,48,1000.59
2014,02,18,09,49,1000.51
2014,02,18,09,50,1000.44
2014,02,18,09,51,1000.45
2014,02,18,09,52,1000.50
2014,02,18,09,53,1000.53
2014,02,18,09,54,1000.48
2014,02,18,09,55,1000.39
2014,02,18,09,56,1000.34
2014,02,18,09,57,1000.36
2014,02,18,09,58,1000.43
2014,02,18,09,59,1000.51
2014,02,18,10,00,1000.53
2014,02,18,10,01,1000.51
2014,02,18,10,02,1000.49
2014,02,18,10,03,1000.46
2014,02,18,10,04,1000.44
2014,02,18,10,05,1000.40
2014,02,18,10,06,1000.34
2014,02,18,10,07,1000.31
2014,02,18,10,08,1000.36
2014,02,18,10,09,1000.35
2014,02,18,10,10,1000.33
2014,02,18,10,11,1000.30
2014,02,18,10,12,1000.18
2014,02,18,10,13,1000.10
2014,02,18,10,14,1000.03
2014,02,18,10,15,1000.00
2014,02,18,10,16,999.98
2014,02,18,10,17,999.86
2014,02,18,10,18,999.74
2014,02,18,10,19,999.64
2014,02,18,10,20,999.61
2014,02,18,10,21,999.68
2014,02,18,10,22,999.75
2014,02,18,10,23,999.80
2014,02,18,10,24,999.91
2014,02,18,10,25,1000.00
2014,02,18,10,26,1000.02
2014,02,18,10,27,999.93
2014,02,18,10,28,999.79
2014,02,18,10,29,999.68
2014,02,18,10,30,999.68
2014,02,18,10,31,999.70
2014,02,18,10,32,999.73
2014,02,18,10,33,999.80
2014,02,18,10,34,999.85
2014,02,18,10,35,999.86
2014,02,18,10,36,999.85
2014,02,18,10,37,999.85
2014,02,18,10,38,999.88
2014,02,18,10,39,999.88
2014,02,18,10,40,999.79
2014,02,18,10,41,999.67
2014,02,18,10,42,999.48
2014,02,18,10,43,999.32
2014,02,18,10,44,999.17
2014,02,18,10,45,999.07
2014,02,18,10,46,999.09
2014,02,18,10,47,999.09
2014,02,18,10,48,999.02
2014,02,18,10,49,998.95
2014,02,18,10,50,998.84
2014,02,18,10,51,998.78
2014,02,18,10,52,998.74
2014,02,18,10,53,998.70
2014,02,18,10,54,998.68
2014,02,18,10,55,998.68
2014,02,18,10,56,998.66
2014,02,18,10,57,998.59
2014,02,18,10,58,998.58
2014,02,18,10,59,998.57
2014,02,18,11,00,998.54
2014,02,18,11,01,998.56
2014,02,18,11,02,998.58
2014,02,18,11,03,998.54
2014,02,18,11,04,998.55
2014,02,18,11,05,998.63
2014,02,18,11,06,998.70
2014,02,18,11,07,998.69
2014,02,18,11,08,998.68
2014,02,18,11,09,998.72
2014,02,18,11,10,998.77
2014,02,18,11,11,998.73
2014,02,18,11,12,998.64
2014,02,18,11,13,998.59
2014,02,18,11,14,998.51
2014,02,18,11,15,998.37
2014,02,18,11,16,998.24
2014,02,18,11,17,998.08
2014,02,18,11,18,997.98
2014,02,18,11,19,997.95
2014,02,18,11,20,997.94
2014,02,18,11,21,997.92
2014,02,18,11,22,997.86
2014,02,18,11,23,997.76
2014,02,18,11,24,997.65
2014,02,18,11,25,997.60
2014,02,18,11,26,997.52
2014,02,18,11,27,997.41
2014,02,18,11,28,997.36
2014,02,18,11,29,997.38
2014,02,18,11,30,997.39
2014,02,18,11,31,997.34
2014,02,18,11,32,997.31
2014,02,18,11,33,997.36
2014,02,18,11,34,997.37
2014,02,18,11,35,997.30
2014,02,18,11,36,997.28
2014,02,18,11,37,997.27
2014,02,18,11,38,997.28
2014,02,18,11,39,997.29
2014,02,18,11,40,997.29
2014,02,18,11,41,997.34
2014,02,18,11,42,997.36
2014,02,18,11,43,997.25
2014,02,18,11,44,997.15
2014,02,18,11,45,997.05
2014,02,18,11,46,997.04
2014,02,18,11,47,997.15
2014,02,18,11,48,997.17
2014,02,18,11,49,997.10
2014,02,18,11,50,996.96
2014,02,18,11,51,996.94
2014,02,18,11,52,997.04
2014,02,18,11,53,997.09
2014,02,18,11,54,997.14
2014,02,18,11,55,997.19
2014,02,18,11,56,997.19
2014,02,18,11,57,997.17
2014,02,18,11,58,997.04
2014,02,18,11,59,996.88
2014,02,18,12,00,996.88
2014,02,18,12,01,996.98
2014,02,18,12,02,997.05
2014,02,18,12,03,997.07
2014,02,18,12,04,997.14
2014,02,18,12,05,997.14
2014,02,18,12,06,997.07
2014,02,18,12,07,997.05
2014,02,18,12,08,997.00
2014,02,18,12,09,996.89
2014,02,18,12,10,996.78
2014,02,18,12,11,996.68
2014,02,18,12,12,996.55
2014,02,18,12,13,996.55
2014,02,18,12,14,996.62
2014,02,18,12,15,996.69
2014,02,18,12,16,996.74
2014,02,18,12,17,996.70
2014,02,18,12,18,996.63
2014,02,18,12,19,996.61
2014,02,18,12,20,996.59
2014,02,18,12,21,996.56
2014,02,18,12,22,996.53
2014,02,18,12,23,996.57
2014,02,18,12,24,996.65
2014,02,18,12,25,996.72
2014,02,18,12,26,996.72
2014,02,18,12,27,996.66
2014,02,18,12,28,996.61
2014,02,18,12,29,996.58
2014,02,18,12,30,996.54
2014,02,18,12,31,996.48
2014,02,18,12,32,996.39
2014,02,18,12,33,996.32
2014,02,18,12,34,996.31
2014,02,18,12,35,996.35
2014,02,18,12,36,996.40
2014,02,18,12,37,996.41
2014,02,18,12,38,996.36
2014,02,18,12,39,996.23
2014,02,18,12,40,996.19
2014,02,18,12,41,996.19
2014,02,18,12,42,996.19
2014,02,18,12,43,996.23
2014,02,18,12,44,996.28
2014,02,18,12,45,996.31
2014,02,18,12,46,996.36
2014,02,18,12,47,996.50
2014,02,18,12,48,996.71
2014,02,18,12,49,996.84
2014,02,18,12,50,996.89
2014,02,18,12,51,996.86
2014,02,18,12,52,996.80
2014,02,18,12,53,996.78
2014,02,18,12,54,996.80
2014,02,18,12,55,996.78
2014,02,18,12,56,996.79
2014,02,18,12,57,996.78
2014,02,18,12,58,996.78
2014,02,18,12,59,996.80
2014,02,18,13,00,996.75
2014,02,18,13,01,996.61
2014,02,18,13,02,996.48
2014,02,18,13,03,996.37
2014,02,18,13,04,996.29
2014,02,18,13,05,996.26
2014,02,18,13,06,996.26
2014,02,18,13,07,996.24
2014,02,18,13,08,996.19
2014,02,18,13,09,996.14
2014,02,18,13,10,996.08
2014,02,18,13,11,996.04
2014,02,18,13,12,996.02
2014,02,18,13,13,996.08
2014,02,18,13,14,996.18
2014,02,18,13,15,996.19
2014,02,18,13,16,996.17
2014,02,18,13,17,996.16
2014,02,18,13,18,996.19
2014,02,18,13,19,996.28
2014,02,18,13,20,996.36
2014,02,18,13,21,996.39
2014,02,18,13,22,996.40
2014,02,18,13,23,996.41
2014,02,18,13,24,996.46
2014,02,18,13,25,996.49
2014,02,18,13,26,996.52
2014,02,18,13,27,996.48
2014,02,18,13,28,996.38
2014,02,18,13,29,996.31
2014,02,18,13,30,996.22
2014,02,18,13,31,996.11
2014,02,18,13,32,996.05
2014,02,18,13,33,996.04
2014,02,18,13,34,996.02
2014,02,18,13,35,995.99
2014,02,18,13,36,995.91
2014,02,18,13,37,995.89
2014,02,18,13,38,995.90
2014,02,18,13,39,995.88
2014,02,18,13,40,995.85
2014,02,18,13,41,995.82
2014,02,18,13,42,995.78
2014,02,18,13,43,995.73
2014,02,18,13,44,995.65
2014,02,18,13,45,995.61
2014,02,18,13,46,995.68
2014,02,18,13,47,995.77
2014,02,18,13,48,995.82
2014,02,18,13,49,995.82
2014,02,18,13,50,995.82
2014,02,18,13,51,995.82
2014,02,18,13,52,995.76
2014,02,18,13,53,995.70
2014,02,18,13,54,995.65
2014,02,18,13,55,995.58
2014,02,18,13,56,995.48
2014,02,18,13,57,995.39
2014,02,18,13,58,995.36
2014,02,18,13,59,995.34
2014,02,18,14,00,995.34
2014,02,18,14,01,995.36
2014,02,18,14,02,995.34
2014,02,18,14,03,995.33
2014,02,18,14,04,995.33
2014,02,18,14,05,995.33
2014,02,18,14,06,995.33
2014,02,18,14,07,995.33
2014,02,18,14,08,995.36
2014,02,18,14,09,995.40
2014,02,18,14,10,995.38
2014,02,18,14,11,995.34
2014,02,18,14,12,995.35
2014,02,18,14,13,995.38
2014,02,18,14,14,995.45
2014,02,18,14,15,995.53
2014,02,18,14,16,995.56
2014,02,18,14,17,995.56
2014,02,18,14,18,995.58
2014,02,18,14,19,995.64
2014,02,18,14,20,995.69
2014,02,18,14,21,995.70
2014,02,18,14,22,995.66
2014,02,18,14,23,995.61
2014,02,18,14,24,995.58
2014,02,18,14,25,995.62
2014,02,18,14,26,995.72
2014,02,18,14,27,995.79
2014,02,18,14,28,995.82
2014,02,18,14,29,995.84
2014,02,18,14,30,995.89
2014,02,18,14,31,995.96
2014,02,18,14,32,995.97
2014,02,18,14,33,995.97
2014,02,18,14,34,995.97
2014,02,18,14,35,995.99
2014,02,18,14,36,996.04
2014,02,18,14,37,996.07
2014,02,18,14,38,996.09
2014,02,18,14,39,996.20
2014,02,18,14,40,996.31
2014,02,18,14,41,996.33
2014,02,18,14,42,996.35
2014,02,18,14,43,996.38
2014,02,18,14,44,996.29
2014,02,18,14,45,996.19
2014,02,18,14,46,996.26
2014,02,18,14,47,996.28
2014,02,18,14,48,996.22
2014,02,18,14,49,996.24
2014,02,18,14,50,996.24
2014,02,18,14,51,996.26
2014,02,18,14,52,996.35
2014,02,18,14,53,996.33
2014,02,18,14,54,996.17
2014,02,18,14,55,995.96
2014,02,18,14,56,995.68
2014,02,18,14,57,995.30
2014,02,18,14,58,995.10
2014,02,18,14,59,995.11
2014,02,18,15,00,995.16
2014,02,18,15,01,995.19
2014,02,18,15,02,995.22
2014,02,18,15,03,995.31
2014,02,18,15,04,995.40
2014,02,18,15,05,995.43
2014,02,18,15,06,995.48
2014,02,18,15,07,995.55
2014,02,18,15,08,995.59
2014,02,18,15,09,995.63
2014,02,18,15,10,995.63
2014,02,18,15,11,995.65
2014,02,18,15,12,995.69
2014,02,18,15,13,995.72
2014,02,18,15,14,995.77
2014,02,18,15,15,995.84
2014,02,18,15,16,995.92
2014,02,18,15,17,995.97
2014,02,18,15,18,996.01
2014,02,18,15,19,996.06
2014,02,18,15,20,996.10
2014,02,18,15,21,996.18
2014,02,18,15,22,996.26
2014,02,18,15,23,996.35
2014,02,18,15,24,996.40
2014,02,18,15,25,996.41
2014,02,18,15,26,996.43
2014,02,18,15,27,996.47
2014,02,18,15,28,996.53
2014,02,18,15,29,996.62
2014,02,18,15,30,996.70
2014,02,18,15,31,996.79
2014,02,18,15,32,996.84
2014,02,18,15,33,996.87
2014,02,18,15,34,996.92
2014,02,18,15,35,997.00
2014,02,18,15,36,997.10
2014,02,18,15,37,997.12
2014,02,18,15,38,997.09
2014,02,18,15,39,997.12
2014,02,18,15,40,997.14
2014,02,18,15,41,997.10
2014,02,18,15,42,997.03
2014,02,18,15,43,997.04
2014,02,18,15,44,997.14
2014,02,18,15,45,997.16
2014,02,18,15,46,997.17
2014,02,18,15,47,997.21
2014,02,18,15,48,997.21
2014,02,18,15,49,997.20
2014,02,18,15,50,997.17
2014,02,18,15,51,997.12
2014,02,18,15,52,997.07
2014,02,18,15,53,997.02
2014,02,18,15,54,996.94
2014,02,18,15,55,996.82
2014,02,18,15,56,996.71
2014,02,18,15,57,996.70
2014,02,18,15,58,996.75
2014,02,18,15,59,996.78
2014,02,18,16,00,996.80
2014,02,18,16,01,996.84
2014,02,18,16,02,996.85
2014,02,18,16,03,996.90
2014,02,18,16,04,996.90
2014,02,18,16,05,996.87
2014,02,18,16,06,996.89
2014,02,18,16,07,996.94
2014,02,18,16,08,997.02
2014,02,18,16,09,997.03
2014,02,18,16,10,997.02
2014,02,18,16,11,997.02
2014,02,18,16,12,996.97